Regional Weather Roundup
Issued by NWS Charleston, WV

Home | Current Version | Previous Version | Text Only | Print | Product List | Glossary Off
Versions: 1 2 3 4 5 6 7 8 9 10 11 12 13 14 15 16 17 18 19 20 21 22 23 24 25 26 27

000
ASUS41 KRLX 160210
RWRRLX
West Virginia Regional Weather Roundup
National Weather Service Charleston WV
1000 PM EDT TUE APR 15 2014

Note: "fair" indicates few or no clouds below 12,000 feet with no
significant weather and/or obstructions to visibility.

WVZ003-160300-
Northern Panhandle of West Virginia

CITY           SKY/WX    TMP DP  RH WIND       PRES   REMARKS
WHEELING       CLOUDY    28  17  63 W18G24    30.16R
$$

WVZ009-160300-
Northwest West Virginia

CITY           SKY/WX    TMP DP  RH WIND       PRES   REMARKS
PARKERSBURG    CLOUDY    32  17  54 NW9       30.23R
$$

WVZ006-160300-
Western West Virginia

CITY           SKY/WX    TMP DP  RH WIND       PRES   REMARKS
HUNTINGTON     MOCLDY    33  19  56 N6        30.20R
$$

WVZ015-160300-
West Central West Virginia

CITY           SKY/WX    TMP DP  RH WIND       PRES   REMARKS
CHARLESTON     CLOUDY    35  18  49 NW12G21   30.19R
$$

WVZ031-160300-
North Central West Virginia

CITY           SKY/WX    TMP DP  RH WIND       PRES   REMARKS
CLARKSBURG     CLOUDY    30  19  63 W14       30.15R
MORGANTOWN     CLOUDY    31  15  52 NW9G20    30.15R
$$

WVZ035-042-045-160300-
South Central West Virginia

CITY           SKY/WX    TMP DP  RH WIND       PRES   REMARKS
BECKLEY        CLOUDY    28  17  63 NW14G28   30.07R
BLUEFIELD      CLOUDY    30  18  60 NW15G25   30.05R
LEWISBURG      CLOUDY    29  17  59 NW20G29   30.05R
$$

WVZ047-160300-
Northern Mountains of West Virginia

CITY           SKY/WX    TMP DP  RH WIND       PRES   REMARKS
ELKINS         CLOUDY    28  17  63 NW13      30.10R
$$

WVZ052-160300-
Eastern Panhandle of West Virginia

CITY           SKY/WX    TMP DP  RH WIND       PRES   REMARKS
MARTINSBURG    CLOUDY    37  21  52 NW18G25   30.03R
PETERSBURG     CLOUDY    39  26  59 NW17G28   30.08R
$$



USA.gov is the U.S. government's official web portal to all federal, state and local government web resources and services.